O3B FM17

Last updated on Sat Jul 18 2026 00:03:21 GMT+0000 (Coordinated Universal Time)

1 44114U 19020C 26198.30276464 -.00000025 00000+0 00000+0 0 9990 2 44114 0.0371 11.7323 0002572 102.5045 245.7859 5.00115607133032
UTC large
Height (km)
Speed (km/s)
/
Latitude / Longitude
Inclination (degrees)
Orbital Period (minutes)
Azimuth
Elevation
Range (km)
Doppler Factor

Next 0 passes for location: London (51.5072 / 0.1276)

No passes found over London.
O3B FM17